Location: Dover
(39.1580°N, 75.5250°W)
Time: 14:58:33
(UTC-05:00)

Daily predictions for brighter satellites

Satellite Brightness Start Highest point End
(mag) Time Altitude Azimuth Time Altitude Azimuth Time Altitude Azimuth
Okean 1-7 Rocket 3.8 18:20:41 10° N 18:25:03 47° E 18:29:21 10° SSE
Cosmos 2322 4.4 18:26:04 10° NNW 18:31:43 61° WSW 18:37:17 10° S
Cosmos 1300 Rocket 4.0 18:27:47 10° SSW 18:32:11 69° W 18:36:38 10° N
Cosmos 2285 Rocket 4.3 18:27:43 10° N 18:33:57 49° ENE 18:40:07 10° SE
Cosmos 1238 Rocket 2.9 18:33:04 10° NNW 18:35:59 56° W 18:39:06 10° S
Hubble Space Telescope 2.8 18:38:41 10° SW 18:41:32 18° S 18:44:23 10° SE
Cosmos 1455 Rocket 4.2 18:39:00 10° SE 18:42:18 21° E 18:45:35 10° NE
Cosmos 2237 Rocket 3.1 18:38:08 10° N 18:43:05 29° ENE 18:47:51 11° ESE
Cosmos 2297 Rocket 3.2 18:39:12 10° SSE 18:43:38 24° ESE 18:48:05 10° NE
OAO 3 Rocket 4.3 18:42:48 10° SW 18:47:09 31° SSE 18:50:29 15° ESE
Cosmos 405 Rocket 3.5 18:44:10 10° N 18:47:51 33° ENE 18:51:27 10° SE
Cosmos 2333 4.2 18:43:07 10° NNW 18:48:54 84° ENE 18:54:41 10° SSE
ALOS 2.4 18:45:16 10° SSE 18:49:48 53° ENE 18:54:22 10° N
COSMO-SKYMED 1 4.4 18:45:56 10° N 18:49:52 34° WNW 18:53:48 10° SW
H-2A R/B 3.4 18:48:59 10° SE 18:52:18 31° ENE 18:55:41 10° N
Cosmos 2219 Rocket 2.2 18:46:59 10° NNW 18:52:31 57° ENE 18:58:01 10° SE
COSMOS 2428 2.9 18:47:10 10° NNW 18:52:52 80° WSW 18:58:34 10° SSE
Cosmos 2360 Rocket 4.0 18:48:45 10° NW 18:53:47 34° WSW 18:58:49 10° SSW
CZ-2D R/B 4.2 18:54:44 15° ESE 18:57:02 27° ENE 19:00:18 10° NNE
SJ-6B 2.9 18:54:46 10° S 18:58:44 81° WSW 19:02:37 10° NNW
Meteor 2-4 Rocket 3.9 18:54:51 10° NNW 19:00:18 71° W 19:05:37 10° S
USA 229 DEB 3.8 18:54:29 10° NNW 19:01:41 89° ENE 19:08:57 10° SSE
USA 229 3.8 18:54:35 10° NNW 19:01:46 89° NE 19:09:03 10° SSE
Cosmos 2227 Rocket 2.4 18:58:51 10° S 19:04:15 49° ESE 19:09:42 10° NNE
Cosmos 2219 4.2 18:59:44 10° SW 19:05:18 50° WNW 19:10:53 10° NNE
BREEZE-M DEB (TANK) 3.7 19:05:37 10° NW 19:08:56 61° NE 19:15:07 19° ESE
Resurs 01 Rocket 1.6 19:04:43 10° SSE 19:09:03 62° ENE 19:13:25 10° N
Cosmos 468 Rocket 4.0 19:04:32 10° NNW 19:09:47 66° ENE 19:15:01 10° SSE
Cosmos 1610 Rocket 4.4 19:06:09 10° S 19:12:20 72° E 19:18:28 10° N
NOSS 3-1 (A) 4.4 19:07:01 10° NNW 19:14:13 44° NE 19:19:04 23° ESE
Cosmos 1441 Rocket 4.1 19:10:40 10° NNE 19:14:08 30° ENE 19:14:08 30° ENE
Resurs 1-3 3.6 19:10:21 10° SSE 19:14:39 60° ENE 19:18:59 10° N
Spot 2 Rocket 3.4 19:10:25 10° SSE 19:15:26 71° ENE 19:20:31 10° N
Cosmos 1025 Rocket 3.6 19:11:23 10° NNW 19:15:43 60° W 19:20:02 10° S
ATLAS 2AS CENTAUR R/B 4.4 19:13:09 10° NNW 19:18:46 20° NNE 19:21:49 16° ENE
Meteor 1-12 Rocket 4.4 19:13:06 10° SSE 19:18:50 51° E 19:24:31 10° NNE
SL-16 R/B 3.2 19:15:42 10° N 19:20:24 26° NE 19:21:06 25° ENE
Cosmos 1892 Rocket 3.4 19:17:15 10° N 19:21:37 79° E 19:26:01 10° S
GEOS 3 Rocket 3.7 19:20:20 17° NE 19:24:20 53° ESE 19:29:29 10° SSW
Atlas Centaur 2 3.6 19:21:29 10° SW 19:27:57 29° SSE 19:30:22 24° SE
GPS 2-04 Rocket1 3.4 19:24:17 10° W 19:28:23 48° S 19:29:35 37° SE
Meteor 2-13 Rocket 4.4 19:23:39 10° S 19:29:44 85° W 19:35:52 10° N
NOSS 3-1 (C) 4.0 19:23:31 10° NNW 19:31:07 67° NE 19:36:32 24° SE
Abrixas rocket 4.3 19:29:06 10° WNW 19:31:42 20° NNW 19:32:36 18° N
OTV 4 0.8 19:29:10 10° WSW 19:31:45 57° SW 19:31:45 57° SW
Envisat 3.7 19:32:27 33° ENE 19:32:27 33° ENE 19:36:40 10° N
FENGYUN 3A 4.1 19:27:10 10° S 19:32:31 62° W 19:37:54 10° NNW
Cosmos 1814 Rocket 3.8 19:27:59 10° NNW 19:33:09 80° ENE 19:36:39 21° SSE
Okean 2 4.2 19:29:20 10° NNW 19:33:25 53° W 19:37:28 10° S
SL-8 Rocket 4.4 19:38:21 37° ESE 19:39:08 39° E 19:44:55 10° NNE
Cosmos 1544 Rocket 4.0 19:38:20 10° SSW 19:42:36 61° W 19:46:54 10° N
Cosmos 1980 3.6 19:37:25 10° NNW 19:43:06 86° WSW 19:46:48 23° SSE
NOSS 0 Rocket 4.1 19:38:03 10° NNW 19:44:09 69° WSW 19:50:08 10° SSE
Cosmos 2333 Rocket 2.6 19:40:50 10° NNW 19:46:33 64° WSW 19:51:57 11° S
Helios 1B rocket 2.3 19:42:56 10° NNE 19:47:06 86° E 19:51:15 10° SSW
USA 32 3.9 19:44:29 10° N 19:49:43 68° E 19:51:05 47° SSE
Cosmos 1354 Rocket 4.5 19:46:46 10° S 19:50:30 43° SSE 19:50:30 43° SSE
Helios 1A 2.9 19:52:56 63° S 19:53:32 80° WSW 19:57:42 10° NNW
Cosmos 1975 3.2 19:51:15 10° SSW 19:55:14 63° W 19:59:17 10° N
Cosmos 1437 4.2 19:53:42 10° NNW 19:56:46 37° W 19:56:58 36° WSW
Cosmos 1500 3.6 19:53:42 10° SSW 19:57:26 59° W 20:01:11 10° N
Cosmos 1602 Rocket 4.5 19:55:03 10° N 19:57:52 38° N 19:57:52 38° N
Nadezhda 3 Rocket 4.2 19:56:42 10° NNW 20:02:49 68° W 20:08:58 10° S
Cosmos 1626 Rocket 4.3 19:59:04 10° N 20:02:06 42° N 20:02:06 42° N
CZ-3 Stage 3 4.3 19:30:51 10° SW 20:04:45 39° S 20:07:53 33° SE
Cosmos 2082 4.3 20:02:35 10° SW 20:08:11 56° WNW 20:13:49 10° NNE
Cosmos 841 Rocket 3.4 20:05:25 10° NNW 20:10:34 83° WSW 20:10:38 83° SW
ATLAS CENTAUR R/B 4.2 20:12:09 10° W 20:13:24 15° WNW 20:13:24 15° WNW
Cosmos 2341 Rocket 4.4 20:10:22 10° SSW 20:16:41 64° W 20:23:03 10° N
Cosmos 1763 Rocket 4.0 20:14:16 10° NNW 20:19:17 55° WSW 20:20:13 48° SW
Hubble Space Telescope 3.5 20:19:38 10° SW 20:20:16 12° SW 20:20:16 12° SW
SL-24 R/B - RUBIN 2 4.5 20:15:40 10° SSW 20:21:33 71° SSE 20:21:33 71° SSE
Cosmos 2237 Rocket 3.4 20:21:57 10° NW 20:27:12 39° WSW 20:29:46 25° SSW
Cosmos 2297 Rocket 3.2 20:21:58 10° SW 20:27:20 44° WNW 20:32:46 10° N
Cosmos 371 Rocket 4.5 20:32:22 10° NNW 20:35:46 40° NW 20:35:46 40° NW
Cosmos 2227 Rocket 4.3 20:44:03 10° WSW 20:48:34 24° NW 20:53:06 10° N
SL-16 R/B 3.6 20:59:18 10° NW 21:03:01 35° WNW 21:03:01 35° WNW
ATLAS 2AS CENTAUR R/B 3.6 21:03:31 10° NNW 21:09:17 47° N 21:09:17 47° N
Atlas Centaur 2 4.4 21:10:29 10° WSW 21:13:02 21° SW 21:13:02 21° SW
